[[{"header":{"parameterUnit":"m.s-1","parameterCategory":1,"la1":30.2991,"la2":30.254,"lo1":-89.0895,"lo2":-89.0444,"dy":0.0017,"dx":0.0017,"nx":28,"ny":28,"refTime":"2025-08-14T09:00:00:Z","depth":0,"parameterNumber":2,"parameterNumberName":"U-component_of_WINDS"},"data":[0,0,0,0,0,0,0,0,0,0,0,0,0,0,0,0,0,0,0,0,0,0,0,0,0,0,0,0,0,0,0,0,0,0,0,0,0,0,0,0,0,0,0,0,0,0,0,0,0,0,0,0,0,0,0,0,0,0,2.0425,2.0426,0,2.0481,2.0481,2.0482,2.043,2.0428,2.0426,2.0424,2.0484,2.0488,2.0491,0,0,0,0,0,0,0,0,0,0,0,0,0,2.0275,2.0278,2.0425,2.0426,2.0426,2.0481,2.0482,2.0482,2.0431,2.0428,2.0426,2.0423,2.0483,2.0487,2.0491,0,0,0,0,0,0,0,0,0,0,0,0,0,2.0336,2.0279,2.0425,2.0407,2.0406,2.0481,2.0482,2.0482,2.0431,2.0428,2.0425,2.0422,2.0482,2.0487,2.0492,2.0588,0,0,2.0508,2.0511,0,0,0,0,0,0,0,0,2.0333,2.0342,2.0409,2.0408,2.0407,2.0445,2.045,2.0518,2.0432,2.0422,2.0424,2.0421,2.0474,2.048,2.0497,2.059,2.0593,2.0509,2.0512,2.0514,2.0516,0,0,0,0,0,0,0,2.0329,2.0339,2.0447,2.041,2.0409,2.0397,2.0402,2.0463,2.0465,2.0423,2.0419,2.0426,2.0473,2.0492,2.0498,2.0594,2.0509,2.0513,2.0517,2.0519,2.0767,2.077,0,0,0,0,0,0,2.0326,2.0336,2.0445,2.0449,2.0362,2.0402,2.0408,2.0436,2.0464,2.0465,2.0429,2.0423,2.0485,2.0492,2.05,2.0613,2.0514,2.0519,2.0522,2.0763,2.0767,2.0771,0,0,0,0,0,0,2.0323,2.0336,2.0443,2.0391,2.0404,2.0408,2.044,2.0439,2.0458,2.0469,2.0469,2.0448,2.0482,2.0493,2.0566,2.0614,2.0522,2.0526,2.0759,2.0765,2.0769,2.0839,0,0,0,0,0,0,2.0319,2.0336,2.0372,2.0393,2.0407,2.0508,2.0443,2.0443,2.0467,2.0461,2.0487,2.0488,2.0481,2.0558,2.0571,2.062,2.053,2.0755,2.0762,2.0768,2.0833,2.0846,2.0857,0,0,0,0,0,2.0314,2.039,2.0374,2.0387,2.0452,2.051,2.0519,2.0508,2.0471,2.0508,2.0514,2.0487,2.0607,2.0566,2.058,2.0631,2.0752,2.076,2.0767,2.0827,2.0843,2.0857,0,0,0,0,0,0,2.0376,2.0393,2.0375,2.046,2.0484,2.0501,2.0547,2.0526,2.0562,2.0554,2.054,2.0547,2.0623,2.0635,2.0589,2.0724,2.0673,2.0684,2.0714,2.073,2.0742,2.0737,2.0535,0,0,0,0,0,2.0399,2.0445,2.0457,2.0531,2.0544,2.0544,2.0569,2.0558,2.0583,2.0593,2.0605,2.0631,2.0673,2.0702,2.0743,2.0834,2.0838,2.0876,2.0888,2.0899,2.0908,2.0956,2.0972,2.0796,2.0796,2.0796,0,0,2.0449,2.0463,2.0493,2.0544,2.0561,2.0608,2.0553,2.0605,2.064,2.0601,2.067,2.068,2.0708,2.079,2.0827,2.0802,2.0958,2.0908,2.0916,2.092,2.0966,2.0982,2.0997,2.0801,2.08,2.08,0,0,2.0562,2.0578,2.0641,2.0659,2.0685,2.0685,2.07,2.072,2.0725,2.0794,2.0765,2.0807,2.0882,2.0902,2.0922,2.1042,2.1018,2.1056,2.1121,2.1168,2.1182,2.1194,2.1236,2.1251,2.1065,2.1066,2.1066,0,2.062,2.069,2.0676,2.073,2.0753,2.0719,2.0782,2.0801,2.084,2.0856,2.0827,2.0919,2.0936,2.1022,2.1051,2.1069,2.1085,2.1053,2.1181,2.1193,2.1204,2.1244,2.126,2.107,2.1069,2.1069,2.1069,0,2.0759,2.0808,2.0855,2.0892,2.092,2.0979,2.0974,2.1005,2.0992,2.0994,2.1064,2.1082,2.1125,2.1145,2.1133,2.1229,2.1212,2.1183,2.1131,2.1225,2.1262,2.1278,2.1076,2.1075,2.1073,2.1072,0,0,2.0914,2.0941,2.0959,2.0974,2.1001,2.1038,2.1095,2.1136,2.1162,2.119,2.1237,2.1301,2.1272,2.1296,2.1286,2.1327,2.142,2.1292,2.1292,2.1314,2.1525,2.1547,2.1564,2.1404,2.1407,2.1409,2.1522,0,2.1027,2.1125,2.1113,2.1207,2.1251,2.1219,2.1268,2.129,2.1294,2.1332,2.1336,2.1381,2.1341,2.1354,2.1394,2.14,2.1462,2.1392,2.1448,2.145,2.1441,2.1584,2.1607,2.1713,2.1537,2.1539,2.1541,0,2.1173,2.1204,2.1302,2.132,2.1338,2.1383,2.1418,2.1455,2.1479,2.1479,2.1504,2.1487,2.1544,2.1492,2.157,2.1523,2.1545,2.1551,2.1555,2.1559,2.1501,2.1591,2.1747,2.1762,2.1564,2.1562,2.1561,0,2.1274,2.1341,2.1408,2.1422,2.1446,2.1477,2.1489,2.1509,2.1534,2.1566,2.1581,2.162,2.1641,2.1671,2.1665,2.1627,2.1744,2.1692,2.1745,2.1746,2.1771,2.177,2.1931,2.1787,2.1787,2.1787,2.1786,0,2.1401,2.1462,2.1453,2.1494,2.1561,2.1548,2.1614,2.1622,2.164,2.1682,2.1657,2.1697,2.1686,2.1726,2.1722,2.1787,2.1797,2.1798,2.1796,2.18,2.1799,2.1814,2.1806,2.1791,2.179,2.1789,2.1788,0,2.1526,2.1523,2.1593,2.1608,2.1614,2.1662,2.1676,2.1714,2.1715,2.1769,2.1781,2.1783,2.1828,2.1824,2.1876,2.1873,2.1953,2.1943,2.1944,2.1942,2.1995,2.199,2.2171,2.2194,2.2036,2.2037,2.2039,0,2.1607,2.1653,2.1673,2.1698,2.1711,2.1754,2.1778,2.1767,2.1794,2.1823,2.1858,2.1901,2.1934,2.2008,2.2015,2.2054,2.2044,2.2104,2.2049,2.2051,2.2043,2.204,2.2044,2.2115,2.2117,2.2118,2.212,0,2.1751,2.1747,2.1783,2.1818,2.1848,2.1876,2.1901,2.1923,2.1914,2.1946,2.1991,2.2017,2.2068,2.2111,2.2148,2.216,2.2138,2.2137,2.2151,2.2155,2.2154,2.2154,2.1973,2.2133,2.2131,2.213,2.213,2.2129,2.1856,2.1894,2.1914,2.1954,2.1972,2.1995,2.2032,2.2037,2.2074,2.2114,2.2106,2.2156,2.2178,2.2225,2.2241,2.228,2.2259,2.228,2.2285,2.229,2.2295,2.2148,2.2287,2.2287,2.2287,2.2286,2.2286,0,2.1997,2.2008,2.2045,2.208,2.2112,2.2088,2.2115,2.2143,2.2188,2.2209,2.2242,2.2294,2.2335,2.2344,2.2383,2.2413,2.2404,2.2424,2.2421,2.2424,2.2313,2.2296,2.243,2.243,2.243,2.243,2.243,2.243,2.2074,2.2138,2.2136,2.2207,2.2218,2.2266,2.2283,2.2305,2.2322,2.238,2.2413,2.2419,2.2435,2.2475,2.2512,2.2513,2.2528,2.2552,2.255,2.2446,2.2432,2.2418,2.2402,2.2555,2.2556,2.2656,2.2657,2.2658]},{"header":{"parameterUnit":"m.s-1","parameterCategory":1,"la1":30.2991,"la2":30.254,"lo1":-89.0895,"lo2":-89.0444,"dy":0.0017,"dx":0.0017,"nx":28,"ny":28,"refTime":"2025-08-14T09:00:00:Z","depth":0,"parameterNumber":3,"parameterNumberName":"V-component_of_WINDS"},"data":[0,0,0,0,0,0,0,0,0,0,0,0,0,0,0,0,0,0,0,0,0,0,0,0,0,0,0,0,0,0,0,0,0,0,0,0,0,0,0,0,0,0,0,0,0,0,0,0,0,0,0,0,0,0,0,0,0,0,2.1125,2.1125,0,2.1112,2.1112,2.1112,2.1077,2.1077,2.1076,2.1075,2.1063,2.1063,2.1063,0,0,0,0,0,0,0,0,0,0,0,0,0,2.112,2.112,2.1125,2.1125,2.1125,2.1112,2.1112,2.1112,2.1078,2.1077,2.1076,2.1075,2.1063,2.1063,2.1063,0,0,0,0,0,0,0,0,0,0,0,0,0,2.1116,2.112,2.1125,2.1106,2.1104,2.1112,2.1112,2.1112,2.1078,2.1077,2.1075,2.1074,2.1062,2.1063,2.1063,2.1089,0,0,2.1065,2.1065,0,0,0,0,0,0,0,0,2.1116,2.1116,2.1109,2.1107,2.1105,2.1095,2.1106,2.1104,2.1078,2.1088,2.1075,2.1074,2.1074,2.1074,2.1074,2.1088,2.1088,2.1065,2.1065,2.1066,2.1066,0,0,0,0,0,0,0,2.1117,2.1117,2.112,2.1109,2.1107,2.1098,2.1096,2.1105,2.1088,2.1087,2.1084,2.1083,2.1073,2.1074,2.1073,2.1088,2.1065,2.1066,2.1066,2.1066,2.1122,2.1123,0,0,0,0,0,0,2.112,2.1117,2.112,2.112,2.1108,2.1099,2.1097,2.11,2.1087,2.1084,2.1084,2.1082,2.1073,2.1073,2.1073,2.1101,2.1066,2.1066,2.1066,2.1121,2.1122,2.1123,0,0,0,0,0,0,2.112,2.112,2.1121,2.1118,2.1117,2.11,2.1103,2.11,2.11,2.1085,2.1082,2.1088,2.1072,2.1072,2.1085,2.11,2.1066,2.1067,2.1119,2.1121,2.1123,2.1158,0,0,0,0,0,0,2.112,2.112,2.113,2.1118,2.1117,2.1133,2.1104,2.11,2.1101,2.1098,2.1088,2.1085,2.1071,2.1084,2.1086,2.11,2.1067,2.1118,2.112,2.1122,2.1156,2.1161,2.1166,0,0,0,0,0,2.112,2.1141,2.1131,2.1131,2.1129,2.1134,2.1134,2.1117,2.1103,2.1112,2.1102,2.1085,2.1099,2.1086,2.1087,2.1102,2.1117,2.1119,2.1122,2.1153,2.116,2.1166,0,0,0,0,0,0,2.1155,2.1139,2.1127,2.1145,2.1141,2.1128,2.1139,2.1125,2.1125,2.1122,2.1102,2.11,2.1116,2.111,2.1097,2.1126,2.1105,2.1108,2.1128,2.1135,2.1139,2.114,2.1068,0,0,0,0,0,2.1165,2.117,2.1156,2.1173,2.1172,2.1156,2.1158,2.1146,2.1141,2.1139,2.113,2.1126,2.113,2.1132,2.1134,2.1155,2.1152,2.1166,2.1171,2.1175,2.1178,2.1187,2.1193,2.1132,2.1132,2.1132,0,0,2.1185,2.1177,2.1182,2.118,2.1176,2.1182,2.1155,2.1163,2.1167,2.114,2.1151,2.1145,2.114,2.1156,2.1163,2.1152,2.1194,2.1179,2.1182,2.1182,2.1191,2.1197,2.1202,2.1134,2.1133,2.1133,0,0,2.1225,2.122,2.1233,2.1229,2.1223,2.1212,2.1215,2.1205,2.1199,2.121,2.119,2.1195,2.1201,2.1198,2.1197,2.1236,2.122,2.1237,2.1262,2.1272,2.1277,2.1281,2.1294,2.1299,2.124,2.124,2.124,0,2.1251,2.1259,2.1242,2.125,2.125,2.1227,2.1239,2.1237,2.1231,2.1232,2.122,2.1226,2.1221,2.1236,2.1246,2.1246,2.1249,2.1237,2.1278,2.1282,2.1285,2.1297,2.1302,2.1242,2.1242,2.1241,2.1241,0,2.1291,2.1297,2.1308,2.1303,2.1304,2.1316,2.13,2.1303,2.1291,2.1282,2.1293,2.1286,2.1286,2.1289,2.1278,2.1303,2.1296,2.1281,2.126,2.1294,2.1304,2.1309,2.1245,2.1244,2.1244,2.1243,0,0,2.1351,2.1337,2.1341,2.1338,2.1329,2.1334,2.1344,2.1343,2.1346,2.1344,2.1351,2.1357,2.1343,2.1342,2.133,2.1339,2.1369,2.1323,2.1323,2.1331,2.1395,2.1405,2.141,2.1359,2.136,2.1361,2.1395,0,2.1388,2.1403,2.1388,2.1407,2.1411,2.1389,2.1398,2.1394,2.1386,2.1389,2.138,2.1384,2.1366,2.1365,2.1373,2.1364,2.1381,2.1361,2.1365,2.1365,2.1365,2.1416,2.1427,2.1459,2.1399,2.14,2.14,0,2.1432,2.1431,2.145,2.1439,2.1441,2.1448,2.1447,2.145,2.1445,2.1438,2.1437,2.1423,2.1432,2.1412,2.1423,2.141,2.1411,2.1407,2.1408,2.1406,2.1384,2.1414,2.1469,2.1474,2.1407,2.1406,2.1406,0,2.1472,2.1476,2.1487,2.1486,2.1474,2.148,2.1476,2.1469,2.147,2.1469,2.1469,2.1469,2.1469,2.1469,2.1455,2.1442,2.1468,2.1447,2.1462,2.1463,2.1468,2.1467,2.1522,2.1471,2.1471,2.1471,2.1471,0,2.1513,2.1525,2.1505,2.1512,2.1525,2.1508,2.1521,2.1514,2.1509,2.1514,2.1496,2.1501,2.1483,2.1486,2.1476,2.1486,2.1487,2.1481,2.1478,2.1482,2.1482,2.1481,2.1478,2.1472,2.1472,2.1472,2.1471,0,2.1559,2.1547,2.1557,2.1546,2.1543,2.1553,2.1543,2.1549,2.154,2.1547,2.1547,2.1533,2.1536,2.1523,2.1524,2.1517,2.1532,2.1526,2.1534,2.1531,2.1547,2.1545,2.1601,2.1607,2.1554,2.1554,2.1555,0,2.1586,2.1594,2.1584,2.1586,2.1582,2.1586,2.1586,2.157,2.1572,2.1566,2.1573,2.1574,2.1574,2.158,2.157,2.1571,2.1563,2.1583,2.1563,2.1567,2.1562,2.1561,2.1561,2.1587,2.1587,2.1588,2.1588,0,2.1633,2.1626,2.1627,2.1627,2.1628,2.1626,2.1624,2.1627,2.1609,2.1612,2.1614,2.1615,2.1616,2.1617,2.1616,2.1611,2.1597,2.1595,2.1598,2.1601,2.1605,2.1602,2.1543,2.1593,2.1593,2.1592,2.1592,2.1592,2.1669,2.1675,2.1669,2.1671,2.1667,2.1665,2.167,2.1661,2.1663,2.1662,2.1653,2.1658,2.1652,2.1649,2.1646,2.1649,2.1639,2.1644,2.1645,2.1646,2.1649,2.1606,2.1649,2.1648,2.1648,2.1648,2.1648,0,2.1714,2.1709,2.1711,2.1708,2.1709,2.1696,2.1693,2.1695,2.1699,2.1695,2.1695,2.1698,2.17,2.169,2.169,2.1695,2.1688,2.1695,2.1694,2.1693,2.1658,2.1654,2.1701,2.1701,2.17,2.17,2.17,2.17,2.1737,2.1747,2.174,2.1747,2.1742,2.1746,2.1745,2.1743,2.174,2.1744,2.1745,2.1739,2.1732,2.1732,2.1733,2.173,2.173,2.1739,2.1734,2.1701,2.1695,2.1691,2.1687,2.174,2.174,2.1769,2.1769,2.1769]}]]